Grand Island, NE

10:59 PM CST on November 19, 2017 (GMT -0600)
Central Nebraska Regional

Weather History for KGRI - February, 2013

Change the Weather History Date:

Saturday, February 23, 2013

  Actual Average Record
Temperature  
Mean Temperature 22 °F 32 °F  
Max Temperature 37 °F 42 °F 74 °F (2002)
Min Temperature 6 °F 21 °F -10 °F (1993)
Degree Days  
Heating Degree Days 43 34  
Month to date heating degree days 762 844  
Since 1 July heating degree days 4277 4600  
Cooling Degree Days 0 0  
Month to date cooling degree days 0 0  
Year to date cooling degree days 0 0  
Moisture  
Dew Point 16 °F    
Average Humidity 76    
Maximum Humidity 91    
Minimum Humidity 61    
Precipitation  
Precipitation 0.00 in 0.04 in 0.58 in (2000)
Month to date precipitation 0.92 0.53  
Year to date precipitation 1.08 1.06  
Snow  
Snow 0.00 in 0.20 in 7.00 in (1994)
Month to date snowfall 10.0 5.3  
Since 1 July snowfall 20.4 21.1  
Snow Depth 10.00 in    
Sea Level Pressure  
Sea Level Pressure 29.92 in    
Wind  
Wind Speed 10 mph (SW)    
Max Wind Speed 21 mph    
Max Gust Speed 25 mph    
Visibility 9 miles    
Events      
T = Trace of Precipitation, MM = Missing Value Source: NWS Daily Summary

Daily Weather History Graph

Daily Weather History Graph

Search for Another Location

Airport or City:

Trip Planner

Search our weather history database for the weather conditions in past years. The results will help you decide how hot, cold, wet, or windy it might be!

Date:

Astronomy

Feb. 23, 2013 Rise Set
Actual Time 7:15 AM CST 6:17 PM CST
Civil Twilight 6:48 AM CST 6:45 PM CST
Nautical Twilight 6:16 AM CST 7:17 PM CST
Astronomical Twilight 5:44 AM CST 7:49 PM CST
Moon 4:29 PM CST (2/23) 5:39 AM CST (2/23)
Length of Visible Light 11h 57m
Length of Day
11h 01m
Waxing Gibbous, 95% of the Moon is Illuminated
Feb 23
Waxing Gibbous
Feb 25
Full
Mar 4
Last Quarter
Mar 11
New
Mar 19
First Quarter

Hourly Weather History & Observations

Time (CST) Temp. Windchill Dew Point Humidity Pressure Visibility Wind Dir Wind Speed Gust Speed Precip Events Conditions
12:53 AM 10.0 °F -4.5 °F 7.0 °F 87% 30.05 in 9.0 mi WSW 11.5 mph - N/A   Clear
1:53 AM 10.0 °F -1.9 °F 6.1 °F 84% 30.03 in 10.0 mi SW 8.1 mph - N/A   Clear
2:53 AM 10.0 °F -2.9 °F 7.0 °F 87% 30.01 in 10.0 mi SW 9.2 mph - N/A   Clear
3:53 AM 9.0 °F -4.2 °F 6.1 °F 88% 29.98 in 10.0 mi SW 9.2 mph - N/A   Clear
4:53 AM 10.0 °F -2.9 °F 7.0 °F 87% 29.97 in 10.0 mi SW 9.2 mph - N/A   Clear
5:53 AM 6.1 °F -6.8 °F 3.0 °F 87% 29.98 in 9.0 mi SW 8.1 mph - N/A   Clear
6:53 AM 8.1 °F -3.2 °F 5.0 °F 87% 29.96 in 9.0 mi SW 6.9 mph - N/A   Clear
7:53 AM 8.1 °F -3.2 °F 3.9 °F 83% 29.97 in 7.0 mi WSW 6.9 mph - N/A   Clear
8:53 AM 14.0 °F 2.0 °F 9.0 °F 80% 29.96 in 9.0 mi WSW 9.2 mph - N/A   Clear
9:53 AM 21.0 °F 10.6 °F 15.1 °F 78% 29.94 in 10.0 mi SW 9.2 mph - N/A   Clear
10:53 AM 27.0 °F 18.7 °F 18.0 °F 69% 29.93 in 10.0 mi WSW 8.1 mph - N/A   Clear
11:53 AM 33.1 °F 26.9 °F 21.0 °F 61% 29.91 in 10.0 mi SW 6.9 mph - N/A   Clear
12:53 PM 34.0 °F 24.2 °F 21.9 °F 61% 29.90 in 10.0 mi WSW 15.0 mph 25.3 mph N/A   Clear
1:53 PM 36.0 °F 26.3 °F 24.1 °F 62% 29.88 in 10.0 mi WSW 16.1 mph - N/A   Clear
2:53 PM 37.0 °F 28.1 °F 26.1 °F 65% 29.85 in 10.0 mi SW 15.0 mph - N/A   Clear
3:53 PM 35.1 °F 26.4 °F 26.1 °F 70% 29.84 in 10.0 mi South 12.7 mph - N/A   Clear
4:53 PM 34.0 °F 25.0 °F 26.1 °F 73% 29.84 in 10.0 mi South 12.7 mph - N/A   Clear
5:53 PM 30.9 °F 21.7 °F 24.1 °F 76% 29.86 in 7.0 mi South 11.5 mph - N/A   Clear
6:53 PM 27.0 °F 19.5 °F 23.0 °F 85% 29.86 in 10.0 mi South 6.9 mph - N/A   Clear
7:53 PM 27.0 °F 18.0 °F 23.0 °F 85% 29.88 in 10.0 mi SSW 9.2 mph - N/A   Clear
8:53 PM 28.0 °F 18.6 °F 23.0 °F 81% 29.88 in 10.0 mi SSW 10.4 mph - N/A   Clear
9:53 PM 26.1 °F 16.2 °F 21.9 °F 84% 29.90 in 9.0 mi SSW 10.4 mph - N/A   Clear
10:53 PM 26.1 °F 17.6 °F 21.9 °F 84% 29.88 in 8.0 mi SSW 8.1 mph - N/A   Clear
11:53 PM 25.0 °F 15.5 °F 21.9 °F 88% 29.87 in 7.0 mi SW 9.2 mph - N/A   Clear